| time (UTC) | temp F | wind direction | speed MPH | gust MPH | rain 1hr in | rain 24hr in | rain mn in | humidity % | barometer mb |
| 20260905180809 | 85 | 334 | 3.0 | 10.0 | 0.00 | 0.00 | 0.00 | 15 | 1020.5 |
| 20260905180310 | 85 | 156 | 3.0 | 11.0 | 0.00 | 0.00 | 0.00 | 15 | 1020.5 |
| 20260905175812 | 84 | 56 | 4.0 | 12.0 | 0.00 | 0.00 | 0.00 | 15 | 1020.6 |
| 20260905175312 | 84 | 108 | 5.0 | 17.0 | 0.00 | 0.00 | 0.00 | 15 | 1020.6 |
| 20260905174806 | 83 | 167 | 6.0 | 17.0 | 0.00 | 0.00 | 0.00 | 17 | 1020.5 |
| 20260905174303 | 83 | 124 | 6.0 | 14.0 | 0.00 | 0.00 | 0.00 | 16 | 1020.5 |
| 20260905173803 | 83 | 93 | 6.0 | 13.0 | 0.00 | 0.00 | 0.00 | 16 | 1020.5 |
| 20260905173304 | 83 | 173 | 6.0 | 14.0 | 0.00 | 0.00 | 0.00 | 16 | 1020.6 |
| 20260905172804 | 83 | 158 | 6.0 | 14.0 | 0.00 | 0.00 | 0.00 | 16 | 1020.6 |
| 20260905172307 | 83 | 158 | 6.0 | 14.0 | 0.00 | 0.00 | 0.00 | 16 | 1020.5 |
| 20260905171805 | 83 | 165 | 6.0 | 14.0 | 0.00 | 0.00 | 0.00 | 16 | 1020.3 |
| 20260905171306 | 83 | 196 | 5.0 | 12.0 | 0.00 | 0.00 | 0.00 | 16 | 1020.5 |
| 20260905170805 | 83 | 169 | 5.0 | 12.0 | 0.00 | 0.00 | 0.00 | 15 | 1020.3 |
| 20260905170306 | 82 | 198 | 5.0 | 11.0 | 0.00 | 0.00 | 0.00 | 15 | 1020.3 |
| 20260905165803 | 82 | 98 | 5.0 | 11.0 | 0.00 | 0.00 | 0.00 | 16 | 1020.3 |
| 20260905165306 | 81 | 93 | 6.0 | 13.0 | 0.00 | 0.00 | 0.00 | 15 | 1020.2 |
| 20260905164803 | 81 | 179 | 6.0 | 16.0 | 0.00 | 0.00 | 0.00 | 15 | 1020.2 |
| 20260905164302 | 81 | 157 | 5.0 | 16.0 | 0.00 | 0.00 | 0.00 | 15 | 1020.2 |
| 20260905163804 | 81 | 114 | 5.0 | 18.0 | 0.00 | 0.00 | 0.00 | 15 | 1020.2 |
| 20260905163302 | 80 | 179 | 5.0 | 18.0 | 0.00 | 0.00 | 0.00 | 14 | 1020.2 |
| 20260905162804 | 81 | 82 | 3.0 | 11.0 | 0.00 | 0.00 | 0.00 | 15 | 1020.1 |
| 20260905162306 | 81 | 125 | 3.0 | 11.0 | 0.00 | 0.00 | 0.00 | 14 | 1020.1 |
| 20260905161804 | 80 | 284 | 4.0 | 12.0 | 0.00 | 0.00 | 0.00 | 16 | 1020.0 |
| 20260905161302 | 80 | 124 | 4.0 | 12.0 | 0.00 | 0.00 | 0.00 | 16 | 1019.9 |
| 20260905160803 | 80 | 30 | 4.0 | 12.0 | 0.00 | 0.00 | 0.00 | 17 | 1020.0 |
| 20260905155801 | 80 | 140 | 4.0 | 10.0 | 0.00 | 0.00 | 0.00 | 18 | 1020.0 |
| 20260905155300 | 79 | 162 | 4.0 | 13.0 | 0.00 | 0.00 | 0.00 | 19 | 1019.9 |
| 20260905154258 | 78 | 137 | 5.0 | 15.0 | 0.00 | 0.00 | 0.00 | 20 | 1019.9 |
| 20260905153756 | 78 | 206 | 5.0 | 15.0 | 0.00 | 0.00 | 0.00 | 20 | 1019.9 |
| 20260905153300 | 78 | 163 | 4.0 | 11.0 | 0.00 | 0.00 | 0.00 | 19 | 1019.9 |
| 20260905152800 | 78 | 122 | 5.0 | 11.0 | 0.00 | 0.00 | 0.00 | 18 | 1019.9 |
| 20260905151242 | 77 | 167 | 5.0 | 15.0 | 0.00 | 0.00 | 0.00 | 17 | 1019.9 |
| 20260905150736 | 77 | 203 | 6.0 | 13.0 | 0.00 | 0.00 | 0.00 | 17 | 1020.0 |
| 20260905145724 | 76 | 179 | 6.0 | 14.0 | 0.00 | 0.00 | 0.00 | 16 | 1019.9 |
| 20260905144713 | 76 | 142 | 4.0 | 10.0 | 0.00 | 0.00 | 0.00 | 18 | 1019.9 |
| 20260905144212 | 76 | 138 | 5.0 | 12.0 | 0.00 | 0.00 | 0.00 | 18 | 1019.8 |
| 20260905143712 | 75 | 256 | 6.0 | 12.0 | 0.00 | 0.00 | 0.00 | 18 | 1019.7 |
| 20260905143214 | 75 | 180 | 5.0 | 12.0 | 0.00 | 0.00 | 0.00 | 17 | 1019.7 |
| 20260905142713 | 75 | 147 | 5.0 | 13.0 | 0.00 | 0.00 | 0.00 | 16 | 1019.6 |
| 20260905142213 | 75 | 204 | 5.0 | 13.0 | 0.00 | 0.00 | 0.00 | 15 | 1019.7 |
| 20260905141713 | 74 | 150 | 5.0 | 13.0 | 0.00 | 0.00 | 0.00 | 15 | 1019.6 |
| 20260905141212 | 74 | 184 | 5.0 | 14.0 | 0.00 | 0.00 | 0.00 | 15 | 1019.6 |
| 20260905140712 | 74 | 199 | 6.0 | 16.0 | 0.00 | 0.00 | 0.00 | 14 | 1019.4 |
| 20260905140214 | 73 | 160 | 6.0 | 16.0 | 0.00 | 0.00 | 0.00 | 13 | 1019.4 |
| 20260905135713 | 73 | 203 | 4.0 | 14.0 | 0.00 | 0.00 | 0.00 | 13 | 1019.4 |
| 20260905135212 | 72 | 179 | 3.0 | 14.0 | 0.00 | 0.00 | 0.00 | 14 | 1019.4 |
| 20260905134719 | 0 | 0.0 | 0.0 | 0.00 | 0.00 | 0.00 | 1019.4 | ||
| 20260905134215 | 0 | 0.0 | 0.0 | 0.00 | 0.00 | 0.00 | 1019.2 | ||
| 20260905133708 | 0 | 0.0 | 0.0 | 0.00 | 0.00 | 0.00 | 1019.1 | ||
| 20260905133121 | 0 | 0.0 | 0.0 | 0.00 | 0.00 | 0.00 | 1019.1 | ||
| 20260905132613 | 0 | 0.0 | 0.0 | 0.00 | 0.00 | 0.00 | 1019.1 | ||
| 20260905131010 | 0 | 0.0 | 0.0 | 0.00 | 0.00 | 0.00 | 1018.9 | ||
| 20260905130509 | 0 | 0.0 | 0.0 | 0.00 | 0.00 | 0.00 | 1019.0 | ||
| 20260905125915 | 0 | 0.0 | 0.0 | 0.00 | 0.00 | 0.00 | 1018.9 | ||
| 20260905125413 | 0 | 0.0 | 0.0 | 0.00 | 0.00 | 0.00 | 1018.9 | ||
| 20260905124913 | 0 | 0.0 | 0.0 | 0.00 | 0.00 | 0.00 | 1018.8 | ||
| 20260905124410 | 0 | 0.0 | 0.0 | 0.00 | 0.00 | 0.00 | 1018.6 | ||
| 20260905123311 | 0 | 0.0 | 0.0 | 0.00 | 0.00 | 0.00 | 1018.6 | ||
| 20260905122812 | 0 | 0.0 | 0.0 | 0.00 | 0.00 | 0.00 | 1018.5 | ||
| 20260905122306 | 0 | 0.0 | 0.0 | 0.00 | 0.00 | 0.00 | 1018.5 | ||
| 20260905121713 | 0 | 212 | 3.0 | 6.0 | 0.00 | 0.00 | 0.00 | 1018.5 | |
| 20260905121205 | 72 | 212 | 3.0 | 7.0 | 0.00 | 0.00 | 0.00 | 14 | 1018.4 |
| 20260905120656 | 72 | 212 | 3.0 | 12.0 | 0.00 | 0.00 | 0.00 | 14 | 1018.4 |
| 20260905120150 | 72 | 172 | 3.0 | 12.0 | 0.00 | 0.00 | 0.00 | 14 | 1018.5 |
| 20260905115644 | 73 | 193 | 3.0 | 8.0 | 0.00 | 0.00 | 0.00 | 14 | 1018.5 |
| 20260905115137 | 73 | 169 | 3.0 | 8.0 | 0.00 | 0.00 | 0.00 | 15 | 1018.5 |
| 20260905114631 | 73 | 207 | 3.0 | 11.0 | 0.00 | 0.00 | 0.00 | 15 | 1018.5 |
| 20260905114126 | 73 | 155 | 3.0 | 11.0 | 0.00 | 0.00 | 0.00 | 15 | 1018.5 |
| 20260905113619 | 73 | 156 | 3.0 | 8.0 | 0.00 | 0.00 | 0.00 | 16 | 1018.5 |
| 20260905113113 | 74 | 188 | 3.0 | 9.0 | 0.00 | 0.00 | 0.00 | 17 | 1018.4 |
| 20260905112607 | 74 | 185 | 4.0 | 12.0 | 0.00 | 0.00 | 0.00 | 16 | 1018.3 |
| 20260905112101 | 74 | 159 | 5.0 | 12.0 | 0.00 | 0.00 | 0.00 | 16 | 1018.4 |
| 20260905111556 | 74 | 133 | 4.0 | 15.0 | 0.00 | 0.00 | 0.00 | 16 | 1018.4 |
| 20260905111049 | 74 | 180 | 4.0 | 15.0 | 0.00 | 0.00 | 0.00 | 16 | 1018.3 |
| 20260905110542 | 74 | 136 | 4.0 | 10.0 | 0.00 | 0.00 | 0.00 | 16 | 1018.2 |
| 20260905110037 | 74 | 176 | 5.0 | 15.0 | 0.00 | 0.00 | 0.00 | 16 | 1018.2 |
| 20260905105531 | 74 | 105 | 5.0 | 15.0 | 0.00 | 0.00 | 0.00 | 16 | 1018.2 |
| 20260905105025 | 74 | 174 | 5.0 | 11.0 | 0.00 | 0.00 | 0.00 | 16 | 1018.2 |
| 20260905104519 | 74 | 169 | 4.0 | 11.0 | 0.00 | 0.00 | 0.00 | 16 | 1018.2 |
| 20260905104013 | 74 | 165 | 3.0 | 11.0 | 0.00 | 0.00 | 0.00 | 16 | 1018.2 |
| 20260905103507 | 74 | 128 | 3.0 | 10.0 | 0.00 | 0.00 | 0.00 | 17 | 1018.2 |
| 20260905103001 | 74 | 122 | 3.0 | 9.0 | 0.00 | 0.00 | 0.00 | 16 | 1018.3 |
| 20260905102455 | 74 | 207 | 3.0 | 11.0 | 0.00 | 0.00 | 0.00 | 15 | 1018.2 |
| 20260905101455 | 75 | 172 | 4.0 | 12.0 | 0.00 | 0.00 | 0.00 | 15 | 1018.3 |
| 20260905100958 | 75 | 210 | 4.0 | 12.0 | 0.00 | 0.00 | 0.00 | 13 | 1018.3 |
| 20260905100455 | 75 | 153 | 4.0 | 13.0 | 0.00 | 0.00 | 0.00 | 13 | 1018.3 |
| 20260905095951 | 75 | 152 | 5.0 | 13.0 | 0.00 | 0.00 | 0.00 | 13 | 1018.3 |
| 20260905095451 | 75 | 148 | 5.0 | 15.0 | 0.00 | 0.00 | 0.00 | 13 | 1018.2 |
| 20260905094951 | 75 | 207 | 5.0 | 15.0 | 0.00 | 0.00 | 0.00 | 13 | 1018.2 |
| 20260905094452 | 75 | 82 | 3.0 | 11.0 | 0.00 | 0.00 | 0.00 | 12 | 1018.3 |
| 20260905093448 | 75 | 256 | 4.0 | 12.0 | 0.00 | 0.00 | 0.00 | 13 | 1018.2 |
| 20260905092949 | 75 | 113 | 4.0 | 11.0 | 0.00 | 0.00 | 0.00 | 12 | 1018.1 |
| 20260905092449 | 74 | 140 | 4.0 | 11.0 | 0.00 | 0.00 | 0.00 | 13 | 1018.1 |
| 20260905091945 | 74 | 162 | 2.0 | 11.0 | 0.00 | 0.00 | 0.00 | 13 | 1018.2 |
| 20260905091446 | 74 | 153 | 3.0 | 10.0 | 0.00 | 0.00 | 0.00 | 11 | 1018.2 |
| 20260905090947 | 75 | 125 | 4.0 | 12.0 | 0.00 | 0.00 | 0.00 | 10 | 1018.1 |
| 20260905090446 | 75 | 98 | 4.0 | 12.0 | 0.00 | 0.00 | 0.00 | 12 | 1018.1 |
| 20260905085947 | 75 | 188 | 4.0 | 10.0 | 0.00 | 0.00 | 0.00 | 12 | 1018.1 |
| 20260905085445 | 75 | 195 | 4.0 | 12.0 | 0.00 | 0.00 | 0.00 | 12 | 1018.1 |
| 20260905084939 | 75 | 184 | 3.0 | 12.0 | 0.00 | 0.00 | 0.00 | 12 | 1018.1 |
| 20260905084434 | 75 | 195 | 2.0 | 8.0 | 0.00 | 0.00 | 0.00 | 11 | 1018.1 |
| 20260905083932 | 75 | 210 | 3.0 | 9.0 | 0.00 | 0.00 | 0.00 | 11 | 1018.1 |
| 20260905083431 | 75 | 120 | 5.0 | 14.0 | 0.00 | 0.00 | 0.00 | 11 | 1018.3 |
| 20260905082933 | 75 | 194 | 6.0 | 14.0 | 0.00 | 0.00 | 0.00 | 10 | 1018.3 |
| 20260905082432 | 75 | 153 | 6.0 | 14.0 | 0.00 | 0.00 | 0.00 | 10 | 1018.3 |
| 20260905081433 | 74 | 208 | 4.0 | 11.0 | 0.00 | 0.00 | 0.00 | 9 | 1018.4 |
| 20260905080932 | 74 | 160 | 4.0 | 14.0 | 0.00 | 0.00 | 0.00 | 9 | 1018.5 |
| 20260905080432 | 75 | 179 | 6.0 | 14.0 | 0.00 | 0.00 | 0.00 | 9 | 1018.4 |
| 20260905075933 | 74 | 156 | 5.0 | 13.0 | 0.00 | 0.00 | 0.00 | 9 | 1018.4 |
| 20260905075431 | 74 | 182 | 4.0 | 13.0 | 0.00 | 0.00 | 0.00 | 9 | 1018.4 |
| 20260905074933 | 74 | 190 | 4.0 | 11.0 | 0.00 | 0.00 | 0.00 | 9 | 1018.5 |
| 20260905074427 | 74 | 201 | 3.0 | 10.0 | 0.00 | 0.00 | 0.00 | 9 | 1018.5 |
| 20260905073928 | 74 | 195 | 4.0 | 12.0 | 0.00 | 0.00 | 0.00 | 9 | 1018.6 |
| 20260905073427 | 74 | 173 | 4.0 | 12.0 | 0.00 | 0.00 | 0.00 | 8 | 1018.5 |
| 20260905072927 | 74 | 172 | 2.0 | 9.0 | 0.00 | 0.00 | 0.00 | 8 | 1018.5 |
| 20260905072429 | 74 | 146 | 3.0 | 9.0 | 0.00 | 0.00 | 0.00 | 8 | 1018.5 |
| 20260905071928 | 74 | 214 | 5.0 | 12.0 | 0.00 | 0.00 | 0.00 | 8 | 1018.5 |
| 20260905070929 | 74 | 148 | 3.0 | 9.0 | 0.00 | 0.00 | 0.00 | 8 | 1018.5 |
| 20260905070429 | 74 | 217 | 3.0 | 7.0 | 0.00 | 0.00 | 0.00 | 8 | 1018.4 |
| 20260905065924 | 74 | 158 | 4.0 | 8.0 | 0.00 | 0.00 | 0.00 | 7 | 1018.4 |
| 20260905065424 | 74 | 185 | 4.0 | 8.0 | 0.00 | 0.00 | 0.00 | 7 | 1018.4 |
| 20260905064924 | 74 | 155 | 3.0 | 7.0 | 0.00 | 0.00 | 0.00 | 8 | 1018.3 |
| 20260905063925 | 74 | 151 | 2.0 | 8.0 | 0.00 | 0.00 | 0.00 | 7 | 1018.2 |
| 20260905063425 | 74 | 183 | 2.0 | 8.0 | 0.00 | 0.00 | 0.00 | 7 | 1018.2 |
| 20260905061925 | 75 | 216 | 5.0 | 12.0 | 0.00 | 0.00 | 0.00 | 6 | 1018.1 |
| 20260905060919 | 75 | 139 | 5.0 | 11.0 | 0.00 | 0.00 | 0.00 | 6 | 1018.0 |
| 20260905060421 | 75 | 215 | 5.0 | 11.0 | 0.00 | 0.00 | 0.00 | 6 | 1018.1 |
| 20260905055421 | 76 | 186 | 5.0 | 11.0 | 0.00 | 0.00 | 0.00 | 6 | 1018.0 |
| 20260905054919 | 76 | 226 | 4.0 | 11.0 | 0.00 | 0.00 | 0.00 | 6 | 1018.0 |
| 20260905054418 | 76 | 120 | 5.0 | 12.0 | 0.00 | 0.00 | 0.00 | 5 | 1017.8 |
| 20260905053918 | 76 | 182 | 6.0 | 12.0 | 0.00 | 0.00 | 0.00 | 5 | 1018.0 |
| 20260905053418 | 76 | 128 | 8.0 | 16.0 | 0.00 | 0.00 | 0.00 | 5 | 1017.8 |
| 20260905052918 | 77 | 235 | 8.0 | 19.0 | 0.00 | 0.00 | 0.00 | 5 | 1018.0 |
| 20260905052422 | 77 | 198 | 9.0 | 19.0 | 0.00 | 0.00 | 0.00 | 5 | 1017.8 |
| 20260905051921 | 77 | 219 | 9.0 | 19.0 | 0.00 | 0.00 | 0.00 | 5 | 1017.8 |
| 20260905051411 | 77 | 205 | 8.0 | 19.0 | 0.00 | 0.00 | 0.00 | 6 | 1017.7 |
| 20260905050910 | 77 | 140 | 8.0 | 19.0 | 0.00 | 0.00 | 0.00 | 5 | 1017.8 |
| 20260905045909 | 77 | 136 | 8.0 | 19.0 | 0.00 | 0.00 | 0.00 | 7 | 1017.7 |
| 20260905045408 | 77 | 151 | 8.0 | 18.0 | 0.00 | 0.00 | 0.00 | 7 | 1017.7 |
| 20260905044910 | 77 | 196 | 6.0 | 17.0 | 0.00 | 0.00 | 0.00 | 8 | 1017.7 |
| 20260905044407 | 77 | 252 | 6.0 | 17.0 | 0.00 | 0.00 | 0.00 | 9 | 1017.6 |
| 20260905043906 | 77 | 162 | 7.0 | 16.0 | 0.00 | 0.00 | 0.00 | 9 | 1017.6 |
| 20260905043406 | 77 | 180 | 8.0 | 16.0 | 0.00 | 0.00 | 0.00 | 10 | 1017.6 |
| 20260905042907 | 77 | 197 | 9.0 | 22.0 | 0.00 | 0.00 | 0.00 | 11 | 1017.6 |
| 20260905042407 | 77 | 202 | 8.0 | 22.0 | 0.00 | 0.00 | 0.00 | 12 | 1017.5 |
| 20260905041905 | 77 | 187 | 6.0 | 18.0 | 0.00 | 0.00 | 0.00 | 13 | 1017.5 |
| 20260905040906 | 77 | 198 | 5.0 | 12.0 | 0.00 | 0.00 | 0.00 | 16 | 1017.4 |
| 20260905040414 | 77 | 213 | 4.0 | 11.0 | 0.00 | 0.00 | 0.00 | 15 | 1017.4 |
| 20260905035908 | 77 | 180 | 4.0 | 14.0 | 0.00 | 0.00 | 0.00 | 15 | 1017.4 |
| 20260905035403 | 78 | 250 | 5.0 | 14.0 | 0.00 | 0.00 | 0.00 | 14 | 1017.3 |
| 20260905034900 | 77 | 103 | 4.0 | 13.0 | 0.00 | 0.00 | 0.00 | 15 | 1017.2 |
| 20260905033338 | 78 | 159 | 4.0 | 12.0 | 0.00 | 0.00 | 0.00 | 15 | 1017.0 |
| 20260905032833 | 78 | 60 | 5.0 | 14.0 | 0.00 | 0.00 | 0.00 | 15 | 1017.0 |
| 20260905032327 | 78 | 207 | 5.0 | 14.0 | 0.00 | 0.00 | 0.00 | 15 | 1017.0 |
| 20260905031821 | 78 | 240 | 6.0 | 17.0 | 0.00 | 0.00 | 0.00 | 15 | 1016.9 |
| 20260905031318 | 78 | 176 | 6.0 | 17.0 | 0.00 | 0.00 | 0.00 | 15 | 1016.8 |
| 20260905030809 | 78 | 163 | 5.0 | 12.0 | 0.00 | 0.00 | 0.00 | 16 | 1016.8 |
| 20260905025757 | 78 | 179 | 4.0 | 10.0 | 0.00 | 0.00 | 0.00 | 17 | 1016.6 |
| 20260905025251 | 78 | 225 | 4.0 | 12.0 | 0.00 | 0.00 | 0.00 | 17 | 1016.7 |
| 20260905024744 | 78 | 197 | 4.0 | 12.0 | 0.00 | 0.00 | 0.00 | 17 | 1016.6 |
| 20260905024239 | 79 | 149 | 4.0 | 12.0 | 0.00 | 0.00 | 0.00 | 17 | 1016.6 |
| 20260905023227 | 79 | 171 | 6.0 | 12.0 | 0.00 | 0.00 | 0.00 | 16 | 1016.6 |
| 20260905022721 | 79 | 153 | 5.0 | 11.0 | 0.00 | 0.00 | 0.00 | 16 | 1016.6 |
| 20260905021709 | 80 | 178 | 7.0 | 16.0 | 0.00 | 0.00 | 0.00 | 16 | 1016.6 |
| 20260905021203 | 80 | 199 | 7.0 | 16.0 | 0.00 | 0.00 | 0.00 | 15 | 1016.6 |
| 20260905020658 | 80 | 209 | 7.0 | 16.0 | 0.00 | 0.00 | 0.00 | 14 | 1016.5 |
| 20260905020151 | 80 | 193 | 7.0 | 17.0 | 0.00 | 0.00 | 0.00 | 14 | 1016.5 |
| 20260905015141 | 81 | 150 | 8.0 | 24.0 | 0.00 | 0.00 | 0.00 | 13 | 1016.6 |
| 20260905014633 | 81 | 133 | 7.0 | 21.0 | 0.00 | 0.00 | 0.00 | 13 | 1016.5 |
| 20260905014127 | 81 | 90 | 8.0 | 23.0 | 0.00 | 0.00 | 0.00 | 12 | 1016.5 |
| 20260905013621 | 81 | 195 | 8.0 | 23.0 | 0.00 | 0.00 | 0.00 | 12 | 1016.6 |
| 20260905013115 | 82 | 241 | 5.0 | 16.0 | 0.00 | 0.00 | 0.00 | 11 | 1016.6 |
| 20260905012609 | 82 | 312 | 5.0 | 14.0 | 0.00 | 0.00 | 0.00 | 11 | 1016.6 |
| 20260905012103 | 83 | 171 | 7.0 | 19.0 | 0.00 | 0.00 | 0.00 | 10 | 1016.6 |
| 20260905011557 | 84 | 231 | 8.0 | 21.0 | 0.00 | 0.00 | 0.00 | 10 | 1016.5 |
| 20260905011051 | 84 | 264 | 7.0 | 16.0 | 0.00 | 0.00 | 0.00 | 10 | 1016.5 |
| 20260905010545 | 85 | 248 | 7.0 | 18.0 | 0.00 | 0.00 | 0.00 | 11 | 1016.4 |
| 20260905005532 | 85 | 195 | 5.0 | 16.0 | 0.00 | 0.00 | 0.00 | 10 | 1016.4 |
| 20260905005027 | 85 | 247 | 6.0 | 14.0 | 0.00 | 0.00 | 0.00 | 11 | 1016.2 |
| 20260905004521 | 85 | 218 | 5.0 | 14.0 | 0.00 | 0.00 | 0.00 | 11 | 1016.2 |
| 20260905003509 | 86 | 142 | 5.0 | 15.0 | 0.00 | 0.00 | 0.00 | 10 | 1016.4 |
| 20260905003004 | 86 | 209 | 5.0 | 22.0 | 0.00 | 0.00 | 0.00 | 10 | 1016.4 |
| 20260905002458 | 86 | 141 | 6.0 | 22.0 | 0.00 | 0.00 | 0.00 | 10 | 1016.4 |
| 20260905000939 | 86 | 149 | 7.0 | 23.0 | 0.00 | 0.00 | 0.00 | 8 | 1016.4 |
| 20260905000433 | 86 | 139 | 9.0 | 23.0 | 0.00 | 0.00 | 0.00 | 10 | 1016.2 |
| 20260904235927 | 86 | 223 | 10.0 | 21.0 | 0.00 | 0.00 | 0.00 | 10 | 1016.4 |
| 20260904235422 | 86 | 203 | 7.0 | 21.0 | 0.00 | 0.00 | 0.00 | 11 | 1016.4 |
| 20260904234915 | 87 | 203 | 6.0 | 13.0 | 0.00 | 0.00 | 0.00 | 12 | 1016.4 |
| 20260904233904 | 87 | 72 | 5.0 | 13.0 | 0.00 | 0.00 | 0.00 | 13 | 1016.1 |
| 20260904233357 | 87 | 228 | 5.0 | 14.0 | 0.00 | 0.00 | 0.00 | 14 | 1016.1 |
| 20260904232852 | 87 | 237 | 6.0 | 14.0 | 0.00 | 0.00 | 0.00 | 16 | 1016.1 |
| 20260904232346 | 87 | 167 | 7.0 | 24.0 | 0.00 | 0.00 | 0.00 | 15 | 1016.4 |
| 20260904231839 | 87 | 131 | 7.0 | 24.0 | 0.00 | 0.00 | 0.00 | 14 | 1016.5 |
| 20260904231334 | 87 | 192 | 5.0 | 12.0 | 0.00 | 0.00 | 0.00 | 13 | 1016.4 |
| 20260904230827 | 87 | 240 | 5.0 | 16.0 | 0.00 | 0.00 | 0.00 | 14 | 1016.2 |
| 20260904230321 | 87 | 82 | 6.0 | 16.0 | 0.00 | 0.00 | 0.00 | 14 | 1016.4 |
| 20260904225815 | 87 | 210 | 8.0 | 17.0 | 0.00 | 0.00 | 0.00 | 15 | 1016.5 |
| 20260904225309 | 87 | 204 | 9.0 | 21.0 | 0.00 | 0.00 | 0.00 | 14 | 1016.5 |
| 20260904224809 | 87 | 176 | 9.0 | 21.0 | 0.00 | 0.00 | 0.00 | 12 | 1016.6 |
| 20260904224308 | 87 | 203 | 8.0 | 24.0 | 0.00 | 0.00 | 0.00 | 12 | 1016.6 |
| 20260904223809 | 87 | 286 | 7.0 | 24.0 | 0.00 | 0.00 | 0.00 | 11 | 1016.5 |
| 20260904223311 | 87 | 212 | 7.0 | 20.0 | 0.00 | 0.00 | 0.00 | 11 | 1016.5 |
| 20260904222306 | 87 | 127 | 6.0 | 13.0 | 0.00 | 0.00 | 0.00 | 12 | 1016.5 |
| 20260904221806 | 88 | 319 | 5.0 | 16.0 | 0.00 | 0.00 | 0.00 | 13 | 1016.6 |
| 20260904221304 | 87 | 187 | 6.0 | 18.0 | 0.00 | 0.00 | 0.00 | 13 | 1016.7 |
| 20260904220805 | 86 | 167 | 8.0 | 19.0 | 0.00 | 0.00 | 0.00 | 17 | 1016.7 |
| 20260904220305 | 86 | 149 | 8.0 | 26.0 | 0.00 | 0.00 | 0.00 | 17 | 1016.6 |
| 20260904215803 | 85 | 203 | 8.0 | 26.0 | 0.00 | 0.00 | 0.00 | 17 | 1016.5 |
| 20260904215305 | 86 | 188 | 8.0 | 18.0 | 0.00 | 0.00 | 0.00 | 16 | 1016.7 |
| 20260904214802 | 86 | 202 | 9.0 | 22.0 | 0.00 | 0.00 | 0.00 | 16 | 1016.8 |
| 20260904214300 | 86 | 179 | 8.0 | 22.0 | 0.00 | 0.00 | 0.00 | 15 | 1016.8 |
| 20260904213805 | 86 | 173 | 8.0 | 19.0 | 0.00 | 0.00 | 0.00 | 14 | 1016.8 |
| 20260904213300 | 86 | 68 | 6.0 | 19.0 | 0.00 | 0.00 | 0.00 | 15 | 1016.8 |
| 20260904212752 | 87 | 181 | 7.0 | 22.0 | 0.00 | 0.00 | 0.00 | 15 | 1016.8 |
| 20260904212253 | 86 | 185 | 8.0 | 22.0 | 0.00 | 0.00 | 0.00 | 16 | 1016.8 |
| 20260904211752 | 86 | 115 | 7.0 | 14.0 | 0.00 | 0.00 | 0.00 | 16 | 1016.8 |
| 20260904211251 | 86 | 193 | 9.0 | 22.0 | 0.00 | 0.00 | 0.00 | 16 | 1016.9 |
| 20260904210750 | 86 | 148 | 9.0 | 22.0 | 0.00 | 0.00 | 0.00 | 16 | 1017.0 |
| 20260904210252 | 86 | 196 | 7.0 | 20.0 | 0.00 | 0.00 | 0.00 | 15 | 1017.2 |
| 20260904205753 | 86 | 276 | 6.0 | 20.0 | 0.00 | 0.00 | 0.00 | 17 | 1017.2 |
| 20260904204751 | 86 | 207 | 7.0 | 19.0 | 0.00 | 0.00 | 0.00 | 17 | 1016.9 |
| 20260904202751 | 86 | 165 | 6.0 | 20.0 | 0.00 | 0.00 | 0.00 | 18 | 1017.5 |
| 20260904202251 | 86 | 184 | 5.0 | 18.0 | 0.00 | 0.00 | 0.00 | 18 | 1017.4 |
| 20260904201252 | 85 | 74 | 7.0 | 29.0 | 0.00 | 0.00 | 0.00 | 19 | 1017.4 |
| 20260904200754 | 85 | 241 | 6.0 | 18.0 | 0.00 | 0.00 | 0.00 | 22 | 1017.4 |
| 20260904194752 | 84 | 179 | 7.0 | 30.0 | 0.00 | 0.00 | 0.00 | 25 | 1017.6 |
| 20260904193752 | 84 | 104 | 5.0 | 15.0 | 0.00 | 0.00 | 0.00 | 26 | 1017.6 |
| 20260904193251 | 84 | 217 | 7.0 | 21.0 | 0.00 | 0.00 | 0.00 | 28 | 1017.7 |
| 20260904192750 | 83 | 98 | 8.0 | 24.0 | 0.00 | 0.00 | 0.00 | 28 | 1017.7 |
| 20260904192252 | 83 | 210 | 8.0 | 24.0 | 0.00 | 0.00 | 0.00 | 27 | 1017.7 |
| 20260904191253 | 83 | 151 | 7.0 | 21.0 | 0.00 | 0.00 | 0.00 | 28 | 1018.0 |
| 20260904190748 | 82 | 281 | 6.0 | 18.0 | 0.00 | 0.00 | 0.00 | 28 | 1017.8 |
| 20260904190247 | 83 | 352 | 7.0 | 17.0 | 0.00 | 0.00 | 0.00 | 30 | 1018.0 |
| 20260904185748 | 82 | 149 | 9.0 | 24.0 | 0.00 | 0.00 | 0.00 | 30 | 1018.0 |
| 20260904185247 | 82 | 139 | 8.0 | 24.0 | 0.00 | 0.00 | 0.00 | 32 | 1018.2 |
| 20260904184745 | 81 | 195 | 7.0 | 24.0 | 0.00 | 0.00 | 0.00 | 33 | 1018.1 |
| 20260904184245 | 82 | 214 | 7.0 | 17.0 | 0.00 | 0.00 | 0.00 | 33 | 1018.2 |
| 20260904183745 | 82 | 103 | 8.0 | 17.0 | 0.00 | 0.00 | 0.00 | 30 | 1018.2 |
| 20260904183245 | 81 | 96 | 9.0 | 21.0 | 0.00 | 0.00 | 0.00 | 32 | 1018.2 |
| 20260904182744 | 81 | 194 | 7.0 | 21.0 | 0.00 | 0.00 | 0.00 | 31 | 1018.2 |
| 20260904182241 | 82 | 102 | 6.0 | 19.0 | 0.00 | 0.00 | 0.00 | 31 | 1018.3 |
| 20260904181240 | 80 | 195 | 8.0 | 22.0 | 0.00 | 0.00 | 0.00 | 33 | 1018.2 |